Lapse_Rate
6.4 6.4 6.4 6.4 6.5 6.6 6.6 6.6 6.6 6.7 6.7 6.8 6.8 6.9 7.0 7.1 7.1 7.1 7.2 7.3 7.3 7.2 7.2 7.3 7.3 7.3 7.2 7.2 7.2 7.3 7.4 7.7 7.6 7.4 7.4 7.1 7.0 7.1 7.2 7.2 7.4 7.7 7.7 7.6 7.6
6.3 6.4 6.4 6.4 6.4 6.5 6.5 6.6 6.6 6.6 6.6 6.6 6.7 6.8 6.9 7.0 7.1 7.1 7.2 7.2 7.2 7.1 7.1 7.2 7.2 7.2 7.2 7.1 7.1 7.1 7.5 7.5 7.4 7.3 7.3 7.1 7.2 7.2 7.4 7.7 7.6 7.4 7.4 7.4 7.4
6.3 6.3 6.4 6.4 6.5 6.5 6.5 6.5 6.5 6.5 6.5 6.5 6.6 6.7 6.8 7.0 7.1 7.3 7.1 7.1 7.1 7.0 7.0 7.0 7.0 6.9 6.9 6.9 7.1 7.0 7.6 7.3 7.4 7.1 7.3 7.4 7.4 7.3 7.6 8.3 8.0 7.4 7.3 7.3 7.5
6.2 6.2 6.3 6.3 6.4 6.4 6.4 6.4 6.4 6.5 6.5 6.5 6.5 6.6 6.8 6.9 7.0 7.0 6.9 6.9 7.1 7.1 7.1 7.0 7.0 7.1 7.2 7.0 7.1 7.1 7.7 7.4 7.5 7.3 7.5 7.5 7.5 7.7 7.6 8.7 8.0 7.7 7.6 7.6 7.8
6.2 6.2 6.2 6.2 6.3 6.4 6.5 6.5 6.6 6.6 6.5 6.6 6.6 6.6 6.8 7.0 7.3 6.9 7.0 7.1 7.1 7.1 7.1 7.1 7.1 7.1 7.2 7.1 7.2 7.2 7.6 7.6 7.6 7.5 7.6 7.4 7.8 7.6 8.2 8.4 8.1 7.9 8.1 8.0 7.9
6.2 6.2 6.3 6.4 6.3 6.3 6.4 6.4 6.5 6.6 6.6 6.6 6.6 6.6 6.7 7.1 7.1 7.1 7.1 7.1 7.2 7.1 7.1 7.2 7.3 7.1 7.1 7.2 7.2 7.2 7.1 7.5 7.7 7.9 7.8 7.4 7.7 7.4 8.6 8.2 8.3 8.1 8.2 8.1 7.9
6.1 6.1 6.2 6.3 6.3 6.4 6.4 6.3 6.4 6.5 6.6 6.5 6.5 6.5 6.8 7.2 7.0 7.1 7.2 7.3 7.3 7.2 7.2 7.2 7.1 7.1 7.3 7.3 7.1 7.2 7.3 7.6 8.0 8.1 7.6 7.6 7.3 7.8 8.4 7.8 8.2 8.3 8.2 8.0 7.9
6.0 6.1 6.2 6.3 6.4 6.5 6.5 6.3 6.4 6.4 6.4 6.4 6.4 6.4 6.7 7.0 7.0 7.1 7.1 7.2 7.3 7.3 7.2 7.1 7.0 6.9 6.9 7.2 6.8 6.9 6.7 7.4 8.5 8.0 7.5 7.5 7.3 7.9 8.0 8.0 8.1 8.0 8.0 7.9 7.9
6.1 6.2 6.2 6.2 6.3 6.4 6.5 6.5 6.5 6.5 6.5 6.4 6.3 6.2 6.4 6.9 7.2 7.1 7.1 7.2 7.1 7.3 7.4 7.2 6.8 6.7 7.1 7.0 6.2 6.7 6.9 7.5 7.9 7.8 7.4 7.3 7.2 7.8 7.7 7.5 7.5 7.6 7.8 7.9 7.9
6.2 6.2 6.2 6.2 6.2 6.3 6.4 6.4 6.3 6.4 6.4 6.5 6.4 6.3 6.5 6.8 6.9 7.1 7.2 7.2 7.2 7.1 7.0 6.9 6.8 6.7 7.1 6.8 6.1 7.9 6.9 7.4 7.4 7.6 7.1 6.6 6.7 7.4 7.5 7.2 7.2 7.2 7.6 7.8 8.0
6.2 6.1 6.1 6.1 6.2 6.3 6.3 6.3 6.3 6.3 6.4 6.4 6.2 6.3 6.4 6.4 6.5 6.8 6.8 6.8 6.8 6.7 6.8 7.0 6.4 6.6 7.4 7.6 7.4 7.1 6.8 6.6 7.0 7.7 7.1 6.8 6.5 6.6 7.0 6.8 7.0 7.3 7.4 7.5 7.9
6.1 6.1 6.2 6.2 6.2 6.3 6.3 6.4 6.3 6.1 6.0 6.2 6.3 6.1 6.4 6.3 6.3 6.9 7.0 6.7 6.6 6.6 6.7 6.5 6.2 7.0 7.1 7.0 6.8 6.7 6.5 6.4 6.9 7.8 7.3 6.7 6.1 6.2 6.2 6.8 6.9 7.1 7.5 7.8 7.9
5.7 5.8 5.9 5.9 6.0 6.1 6.2 6.2 6.2 6.2 5.9 6.4 6.8 6.8 7.0 6.9 6.5 6.8 6.8 6.7 6.6 6.4 6.9 6.6 6.5 6.5 6.3 6.5 6.6 6.7 6.7 7.1 7.0 6.9 6.4 5.9 5.1 5.7 6.4 6.6 7.4 7.4 7.6 7.7 8.0
5.6 5.7 6.0 5.9 5.9 6.1 6.1 6.2 6.2 6.1 5.7 5.9 6.4 7.0 7.3 7.2 6.5 7.1 7.2 6.9 6.6 6.7 6.6 5.8 6.4 6.8 6.7 6.4 7.1 6.4 7.5 6.8 6.3 5.9 5.0 5.8 3.6 4.8 6.2 6.7 7.1 7.4 7.5 7.7 7.9
5.6 5.3 5.8 5.9 5.9 6.0 6.0 6.2 6.1 6.2 3.9 6.3 6.1 6.5 6.9 6.8 7.0 7.0 7.3 7.4 6.9 6.9 6.7 6.6 6.8 6.7 6.4 6.9 7.0 6.4 6.9 7.0 6.5 6.1 5.5 4.7 4.7 4.8 6.0 6.2 6.6 6.9 7.3 7.5 7.7
5.5 5.4 5.8 6.0 6.2 5.9 5.9 5.9 5.9 5.9 4.3 6.2 6.3 6.7 6.7 6.6 6.6 6.4 6.6 6.6 6.8 6.7 6.6 6.9 6.9 6.2 6.8 7.0 6.6 6.6 6.6 7.0 6.8 6.5 4.4 6.0 5.9 3.8 5.8 6.3 6.3 6.5 6.8 7.2 7.4
5.4 5.3 5.7 5.8 6.1 5.7 5.6 5.7 5.6 5.0 5.2 6.1 6.2 6.1 6.1 6.1 6.1 6.3 6.1 6.0 6.2 6.1 6.1 6.6 6.5 6.5 6.8 7.0 6.9 6.9 6.5 5.9 4.8 4.2 3.9 6.2 6.6 5.5 6.0 6.3 6.9 7.0 6.9 6.8 7.1
5.3 5.6 5.7 5.6 5.7 5.5 5.3 5.3 4.9 4.6 5.1 5.9 6.4 6.2 6.0 6.2 6.2 6.1 6.1 6.0 6.1 6.4 6.0 5.5 5.3 6.6 7.1 7.7 7.6 7.7 8.0 6.7 5.2 5.1 6.1 6.5 5.3 5.5 6.5 6.6 7.1 6.9 7.0 7.1 7.5
5.3 5.4 5.6 5.5 5.3 5.3 5.3 5.2 4.7 4.9 5.6 5.5 6.1 5.8 5.7 5.7 6.1 6.4 6.0 6.1 6.2 6.4 7.0 6.7 5.9 6.5 6.8 7.0 7.0 6.8 6.2 7.6 7.1 7.4 5.4 6.0 5.9 6.1 6.5 6.6 6.5 7.1 7.1 7.6 7.5
5.7 5.3 5.3 5.3 5.1 4.9 4.9 4.6 4.8 4.9 5.7 5.6 5.5 5.5 5.4 5.5 5.5 5.8 5.9 5.5 6.1 6.5 6.8 6.8 6.4 5.8 6.4 6.7 6.6 7.1 7.3 6.7 5.9 5.7 5.0 6.4 5.8 5.8 6.1 6.4 6.6 7.1 7.4 7.6 7.7
5.7 5.8 5.2 5.8 5.7 5.5 4.9 4.5 4.7 5.1 5.2 5.7 5.6 5.6 5.2 5.0 5.3 5.2 5.7 5.7 5.9 6.3 6.6 6.6 6.2 5.6 5.8 6.5 7.1 7.2 7.2 7.1 7.2 7.2 7.0 6.7 6.3 6.0 6.0 6.1 6.8 7.5 7.8 7.7 8.5
5.7 5.6 5.7 5.9 5.7 5.7 5.3 5.4 5.5 5.3 5.5 5.4 5.8 5.5 5.6 5.5 5.2 5.3 5.4 5.2 5.0 5.6 6.0 6.5 6.4 5.9 5.4 5.8 6.2 6.8 6.8 7.3 7.2 7.1 7.2 6.9 6.8 7.0 7.4 7.3 7.3 7.1 7.9 8.0 8.2
5.6 5.6 5.4 5.2 5.2 5.4 5.7 5.8 5.9 5.7 5.4 5.4 5.6 5.6 5.7 5.6 5.8 5.4 5.5 5.4 5.7 6.1 6.0 6.1 6.9 6.8 6.5 6.6 6.3 6.4 7.0 7.0 7.5 8.0 7.2 6.2 5.7 7.4 7.2 6.9 7.3 7.4 7.7 8.1 8.3
6.0 5.7 5.7 5.4 5.6 5.4 5.2 5.5 5.6 5.7 5.4 5.6 5.6 5.8 5.8 5.7 5.9 5.7 5.8 5.7 6.2 6.6 6.2 6.0 6.3 6.4 6.7 7.0 7.3 6.9 7.1 7.4 7.5 7.1 7.1 7.1 6.9 6.6 7.0 7.5 8.0 7.0 7.3 7.2 7.2
6.0 6.1 5.6 5.3 4.9 5.2 5.6 5.4 5.6 5.4 5.5 5.5 5.9 5.8 5.9 6.1 5.8 5.9 6.2 6.1 5.9 5.8 5.9 6.4 6.6 6.6 6.4 6.5 6.6 6.9 6.8 6.9 7.0 7.1 7.0 7.3 7.5 7.0 7.2 7.0 6.9 7.2 6.9 6.9 6.5
6.2 6.3 5.9 6.1 6.2 5.6 5.6 5.9 6.2 6.2 6.0 5.8 6.1 6.0 6.2 6.3 6.4 6.4 6.4 6.1 6.5 6.6 6.2 6.9 6.4 6.8 6.5 6.5 6.7 6.8 7.2 7.1 6.7 6.4 6.7 6.9 7.1 8.0 7.4 7.5 7.9 6.9 7.3 7.1 7.1
6.6 6.6 6.5 6.8 6.8 6.4 6.5 6.0 5.9 6.1 6.1 6.3 6.2 6.2 6.2 6.2 5.9 6.3 6.3 6.5 6.6 6.5 7.2 6.3 5.9 6.2 6.2 6.4 5.8 5.8 6.6 7.0 6.4 7.0 7.0 6.7 7.3 7.0 6.8 6.7 6.7 5.9 5.2 5.1 5.2
Wind_Speed
17 18 18 19 18 18 18 17 17 16 15 15 14 15 14 11 8 2 5 8 5 16 7 5 1 1 2 2 2 3 3 3 5 3 5 0 3 2 2 1 3 7 4 2 7
16 17 18 18 18 18 18 19 20 19 18 16 16 16 14 12 2 7 7 7 13 19 6 6 4 3 1 2 1 4 3 8 6 2 4 3 6 4 2 5 5 5 2 4 9
14 16 17 18 19 19 18 19 19 19 20 19 18 18 16 7 3 6 3 11 18 17 5 5 3 5 2 3 4 5 6 5 6 5 4 4 3 5 5 9 9 10 10 9 8
11 14 16 17 18 19 19 19 19 19 19 18 19 20 20 1 5 2 8 11 11 8 5 4 4 4 4 5 6 4 9 7 6 4 3 4 2 5 10 20 8 13 4 9 14
9 11 13 15 18 19 20 21 21 19 18 17 17 17 4 1 9 6 10 8 6 6 7 6 6 5 5 4 3 7 5 7 7 8 6 4 11 8 13 14 9 9 8 12 16
9 11 13 15 16 18 20 22 22 22 19 16 13 11 0 5 2 12 12 7 5 6 6 7 7 7 4 5 6 2 5 7 7 10 7 7 8 6 21 5 12 11 16 12 15
10 11 14 16 17 19 21 23 23 23 20 18 10 2 2 14 1 11 10 5 4 5 5 5 5 5 2 4 3 3 8 7 10 7 8 7 8 11 25 2 11 11 12 11 18
12 13 15 18 20 21 23 26 26 24 22 15 6 3 7 1 3 4 3 2 1 2 1 1 2 3 2 4 6 3 1 5 2 7 4 8 14 13 15 7 17 14 12 11 15
12 13 15 18 22 23 26 30 28 19 7 6 4 4 8 2 2 5 6 3 2 2 3 3 3 4 1 3 4 2 6 8 12 10 5 7 11 12 6 9 12 13 12 13 15
11 12 14 19 22 25 29 28 7 2 3 3 2 1 3 6 3 2 2 5 3 4 3 3 3 3 2 4 8 8 6 6 8 4 5 7 16 15 11 8 12 13 12 11 14
10 11 13 18 21 26 15 4 4 2 3 8 7 6 2 2 1 3 3 5 4 3 6 3 4 10 22 14 13 3 6 8 7 10 6 10 17 18 22 10 11 16 19 20 21
10 9 10 16 20 24 4 5 3 3 8 7 12 9 6 4 4 6 7 7 6 7 5 2 9 18 11 5 10 12 18 20 16 15 6 16 23 19 12 18 21 19 22 21 19
11 8 8 14 18 4 3 3 2 3 3 9 6 5 5 8 5 3 10 4 5 6 9 19 10 13 10 8 6 15 15 18 19 6 5 9 20 12 13 15 20 14 20 21 25
11 9 5 12 3 2 1 1 0 2 2 7 4 3 1 5 5 1 0 4 3 11 8 10 9 11 10 8 14 24 12 14 9 4 12 4 24 7 8 12 12 14 17 19 23
10 10 5 1 2 0 3 2 1 1 6 5 1 3 2 4 2 5 1 4 3 3 5 9 5 6 9 21 11 21 4 6 3 4 5 4 5 4 8 7 12 15 15 19 20
8 10 8 2 1 4 3 1 2 4 8 5 1 2 1 3 2 1 3 4 1 3 5 10 2 5 9 5 9 1 3 4 4 1 11 10 9 7 6 7 6 10 15 16 18
8 11 11 9 3 5 2 2 2 6 3 4 1 3 3 3 2 4 4 6 6 3 4 3 6 3 5 5 3 4 5 3 3 1 12 9 6 20 7 9 11 14 16 14 14
7 9 9 4 15 8 2 1 11 3 6 3 2 5 6 5 5 3 4 3 6 2 2 2 17 9 6 10 9 11 10 7 7 10 20 4 10 11 11 12 11 11 13 12 9
6 1 3 3 15 3 2 7 8 7 6 4 6 5 5 3 6 4 7 6 7 14 9 5 18 3 4 4 8 2 6 11 2 2 1 9 14 10 2 8 7 10 13 17 11
2 2 4 13 17 3 4 21 7 5 3 3 7 6 6 4 1 2 4 4 5 11 4 3 7 4 1 2 3 7 3 1 2 5 8 11 6 15 9 5 8 15 17 18 9
2 3 1 18 6 3 9 8 10 6 5 5 7 11 10 7 9 10 8 3 4 3 5 4 5 11 2 7 10 2 5 5 3 4 12 16 14 6 8 1 6 12 12 10 10
2 4 4 10 4 3 12 7 5 5 7 11 7 13 15 14 14 11 7 12 6 3 5 6 5 6 15 12 5 7 16 17 10 11 5 5 11 30 29 18 20 18 12 7 9
2 3 4 4 7 12 5 8 13 16 15 7 11 10 12 16 13 16 16 16 15 12 6 4 4 11 7 12 14 8 12 10 8 8 21 17 14 26 25 21 20 15 17 11 12
2 3 3 3 7 11 15 16 14 7 14 11 13 16 18 19 20 16 21 6 7 16 17 7 15 19 20 19 4 6 8 9 16 15 19 19 25 25 27 29 30 16 17 10 15
2 4 3 4 11 13 16 11 19 18 8 10 10 19 21 18 21 24 16 15 15 17 13 10 20 18 28 28 25 29 29 29 27 26 25 30 29 22 25 28 24 26 25 15 9
2 2 4 4 6 6 14 19 19 20 16 19 14 15 15 13 12 17 10 5 4 6 7 6 14 22 31 29 26 27 33 32 33 33 34 29 30 28 27 29 29 31 28 26 18
2 2 2 4 3 1 8 7 7 3 2 5 5 1 7 7 9 10 10 11 14 11 17 9 9 14 19 8 21 19 25 36 35 29 24 27 29 17 17 20 22 20 19 18 18
Wind_Direction
25 19 16 11 7 4 359 357 353 350 349 345 345 344 339 328 309 205 239 224 184 173 150 124 173 226 71 304 187 95 69 241 247 230 266 191 241 263 334 200 222 208 184 293 119
21 16 10 6 0 357 353 350 347 344 343 343 343 342 340 334 249 238 256 202 158 156 126 151 172 149 335 244 243 113 147 226 219 223 236 243 209 228 211 237 241 271 259 87 136
12 8 6 0 354 349 346 343 341 339 339 339 340 338 335 326 315 243 188 173 164 169 147 162 137 153 223 167 205 188 212 223 263 244 212 234 236 204 199 255 214 215 230 167 173
2 0 357 352 346 341 337 334 332 331 332 333 335 335 327 181 298 206 168 170 170 174 140 168 169 177 212 213 209 223 238 229 262 254 291 255 249 236 198 246 200 226 195 168 191
348 351 347 344 337 333 329 325 322 323 325 327 331 337 345 321 249 155 164 168 159 153 180 181 177 186 209 217 285 222 249 237 251 278 262 289 245 246 263 246 244 242 198 198 204
333 336 335 334 336 327 323 319 316 316 317 315 321 333 238 238 202 163 158 148 197 179 193 174 202 207 232 228 202 251 276 272 267 256 254 213 267 145 267 251 239 241 239 215 211
315 318 322 323 322 323 318 311 308 305 304 302 298 195 222 239 306 168 163 198 192 184 195 214 184 166 179 280 284 313 310 309 254 246 235 179 285 223 246 248 275 250 249 236 221
308 313 315 318 318 316 312 307 304 299 294 285 221 175 238 328 141 147 184 253 213 186 185 11 139 179 183 289 354 314 342 303 313 140 250 143 264 248 251 210 257 263 260 245 247
300 308 312 315 318 317 313 308 305 297 282 157 142 167 258 102 198 223 162 219 126 65 59 86 120 183 22 144 352 270 236 218 303 206 156 184 249 265 231 202 256 264 261 259 267
299 304 310 313 319 318 319 312 289 30 105 192 265 56 267 236 202 175 158 143 129 107 75 134 76 160 358 126 230 222 219 246 239 246 194 231 251 269 269 200 240 262 268 262 257
299 306 311 315 322 323 337 3 5 10 4 195 205 216 213 177 140 183 159 122 110 103 187 213 145 198 226 210 237 209 228 235 251 268 235 234 246 250 266 268 253 258 261 259 256
291 300 310 315 321 324 351 70 166 202 307 262 249 274 260 171 221 218 129 159 156 198 141 224 212 220 231 215 227 243 256 262 270 257 215 266 262 262 256 263 261 257 261 257 256
278 287 307 313 326 26 47 115 280 148 240 288 222 203 234 163 232 209 149 145 175 174 203 232 232 220 225 236 228 233 237 254 257 317 241 290 276 260 250 254 263 249 248 261 258
271 277 290 317 64 348 335 220 295 178 331 273 258 262 86 146 233 122 242 169 191 225 210 245 238 213 208 229 208 261 225 256 264 304 278 129 293 235 251 245 253 254 259 252 261
248 249 218 330 179 50 232 307 143 109 306 273 230 351 342 154 62 14 54 36 218 179 151 246 192 204 213 230 186 254 205 256 238 229 322 198 264 184 209 248 247 249 249 263 265
278 232 172 112 54 239 269 174 136 34 254 305 49 23 38 22 32 20 84 56 160 253 226 245 241 199 213 186 195 147 90 44 57 91 266 186 200 300 175 215 260 258 253 249 261
246 252 176 165 203 183 243 345 352 215 304 242 190 180 205 217 218 175 154 166 192 292 254 293 223 209 164 242 156 154 107 297 309 63 252 184 216 254 267 239 226 249 251 258 254
327 238 215 218 158 145 50 57 227 189 229 341 167 152 201 154 252 167 122 239 234 204 284 250 293 167 171 198 200 213 189 195 209 256 274 119 247 268 224 240 250 286 279 289 292
321 212 176 186 181 123 142 219 233 177 202 259 321 276 210 193 193 194 202 214 223 189 205 199 269 126 210 176 153 183 189 235 326 43 351 261 272 281 234 279 301 289 293 277 259
318 225 201 182 162 118 217 237 237 216 23 10 260 217 216 183 338 173 226 206 225 197 173 245 280 250 77 24 284 190 173 79 209 201 249 274 257 266 295 280 338 350 332 317 307
274 258 171 147 134 186 220 232 237 196 197 204 241 263 258 252 229 237 219 268 233 197 172 157 160 278 109 191 220 192 243 233 211 191 253 260 270 190 215 135 293 306 317 315 302
253 236 147 150 178 212 232 226 210 192 207 241 245 252 265 274 260 241 237 233 192 167 221 212 151 218 266 285 268 221 261 239 237 240 219 233 257 284 271 275 287 278 286 331 269
248 231 204 235 222 222 222 245 231 250 241 205 240 232 242 256 270 246 258 268 268 235 233 177 250 275 261 280 236 216 228 234 255 251 238 243 255 257 269 271 269 275 265 244 250
297 254 190 222 238 240 237 242 240 226 248 238 249 260 262 264 262 268 269 252 246 252 252 244 247 241 251 248 254 232 222 229 236 250 257 243 252 261 269 270 275 271 277 252 265
252 248 277 220 232 244 250 267 265 262 243 264 256 253 257 260 274 265 277 305 288 282 261 234 251 238 246 252 252 256 258 256 249 255 252 257 258 257 260 270 283 292 289 277 264
260 294 339 290 307 241 225 241 251 263 263 260 266 269 278 281 297 292 277 244 263 318 342 331 278 274 261 249 240 237 249 255 261 259 258 261 265 267 273 281 279 277 281 290 309
286 320 273 270 308 23 246 256 263 9 337 311 313 354 260 285 318 294 267 252 249 266 286 272 285 292 280 309 309 280 260 252 254 260 261 264 266 341 344 325 307 317 33 14 359